Location: Colonia Mina de C?rbuni
(46.1667°N, 22.7167°E)
Time: 06:44:10
(UTC+00:00)

deb Explorer IX - Pass Details

Date: 19 April 2024
Orbit: 513 x 894 km, 38.7° (Epoch: 17 May)

Event Time Altitude Azimuth Distance (km) Brightness Sun altitude
Rises 13:04:22 0° 264° (W) 3,518 ? 42.1°
Reaches altitude 10° 13:07:07 10° 257° (WSW) 2,583 ? 41.7°
Maximum altitude 13:12:50 38° 191° (S) 1,324 ? 40.9°
Drops below altitude 10° 13:18:21 10° 125° (SE) 2,493 ? 40.1°
Sets 13:20:58 0° 117° (ESE) 3,382 ? 39.7°
